Find Kuiper-00015

NORAD ID: 63731 Int'l Des: 2025-088 Owner: KUIP Country: US Constellation: amazon-leo operational
LEOCIRCULAR

当前视图

正在加载3D地球...

About Kuiper-00015

Kuiper-00015 (NORAD 63731) is a amazon-leo constellation satellite launched Apr 28, 2025 by KUIP of US. It operates in LEO, CIRCULAR orbit with a mass of 490.00 kg.

关于 Kuiper-00015

正在加载描述...

即将过境

Passes for default location (London). Set your location on the main map for personalized predictions.

高度历史

Loading altitude history...

两行轨道根数

1 63731U 25088H 26171.28149611 .00000445 00000-0 87336-4 0 9996
2 63731 51.8995 24.4591 0000640 119.9318 240.1709 14.79933909 62898
Epoch: Jun 20, 2026 • Age: 46 hours

当前状态

高度 645.3 km
速度 7.53 km/s
星下点 -46.12°S, 98.96°W
发射日期 Apr 28, 2025
运行时间 1.1 years
类型 internet

技术详情

分类 Payload
质量 490.00 kg
干质量 490.00 kg
总质量 490.00 kg
长度 1.80 m
直径 0.70 m
跨度 5.00 m
形状 Box + 2 pan
制造商 KUIP
平台类型 Kuiper
阶段状态 In Orbit
所有者/国家 KUIP/US

Most Searched